TimePDT,TemperatureF,Dew PointF,Humidity,Sea Level PressureIn,VisibilityMPH,Wind Direction,Wind SpeedMPH,Gust SpeedMPH,PrecipitationIn,Events,Conditions,WindDirDegrees,DateUTC
12:53 AM,53.1,48.9,86,29.82,8.0,South,8.1,-,0.00,Rain,Light Rain,170,2013-11-02 07:53:00
1:53 AM,52.0,48.9,89,29.80,6.0,South,11.5,-,N/A,Rain,Light Rain,180,2013-11-02 08:53:00
2:07 AM,51.8,48.2,88,29.78,4.0,South,6.9,-,N/A,Rain,Rain,180,2013-11-02 09:07:00
2:23 AM,51.8,48.2,88,29.76,4.0,SSE,4.6,-,N/A,Rain,Rain,160,2013-11-02 09:23:00
2:53 AM,51.1,50.0,96,29.73,6.0,Calm,Calm,-,N/A,Rain,Light Rain,0,2013-11-02 09:53:00
2:59 AM,51.8,48.2,88,29.72,7.0,SE,4.6,-,N/A,Rain,Light Rain,130,2013-11-02 09:59:00
3:14 AM,51.8,48.2,88,29.72,6.0,Calm,Calm,-,N/A,Rain,Light Rain,0,2013-11-02 10:14:00
3:53 AM,51.1,48.0,89,29.70,7.0,Calm,Calm,-,N/A,Rain,Light Rain,0,2013-11-02 10:53:00
4:24 AM,51.8,48.2,88,29.67,7.0,South,4.6,-,N/A,Rain,Light Rain,170,2013-11-02 11:24:00
4:51 AM,51.8,48.2,88,29.61,2.5,Variable,5.8,-,N/A,Rain,Light Rain,0,2013-11-02 11:51:00
4:53 AM,51.1,48.9,92,29.60,2.0,Variable,5.8,-,N/A,Rain,Light Rain,0,2013-11-02 11:53:00
5:05 AM,51.8,48.2,88,29.59,10.0,SE,5.8,-,N/A,Rain,Light Rain,140,2013-11-02 12:05:00
5:53 AM,52.0,48.0,86,29.58,10.0,South,10.4,16.1,N/A,,Overcast,180,2013-11-02 12:53:00
6:53 AM,53.1,48.0,83,29.54,10.0,South,16.1,23.0,N/A,Rain,Light Rain,190,2013-11-02 13:53:00
7:53 AM,52.0,48.0,86,29.55,5.0,SW,17.3,38.0,N/A,Rain,Light Rain,220,2013-11-02 14:53:00
8:53 AM,50.0,44.1,80,29.59,10.0,SSW,18.4,32.2,N/A,,Overcast,200,2013-11-02 15:53:00
9:53 AM,50.0,43.0,77,29.60,10.0,SSW,20.7,31.1,N/A,,Overcast,200,2013-11-02 16:53:00
10:53 AM,48.9,42.1,77,29.62,10.0,SSW,26.5,41.4,N/A,Rain,Light Rain,200,2013-11-02 17:53:00
11:53 AM,51.1,39.9,66,29.66,10.0,SSW,17.3,42.6,N/A,,Overcast,210,2013-11-02 18:53:00
12:53 PM,51.1,39.9,66,29.70,10.0,SSW,21.9,40.3,N/A,Rain,Light Rain,210,2013-11-02 19:53:00
1:53 PM,51.1,39.0,63,29.73,10.0,SW,20.7,35.7,N/A,,Mostly Cloudy,220,2013-11-02 20:53:00
2:53 PM,51.1,37.9,61,29.77,10.0,SW,20.7,42.6,N/A,,Scattered Clouds,220,2013-11-02 21:53:00
3:53 PM,51.1,39.0,63,29.81,10.0,SW,20.7,31.1,N/A,,Partly Cloudy,220,2013-11-02 22:53:00
4:53 PM,51.1,37.0,59,29.83,10.0,SSW,19.6,35.7,N/A,,Clear,210,2013-11-02 23:53:00
5:53 PM,48.9,36.0,61,29.83,10.0,SW,17.3,31.1,N/A,,Clear,230,2013-11-03 00:53:00
6:53 PM,48.0,37.0,66,29.84,10.0,SW,15.0,26.5,N/A,,Clear,230,2013-11-03 01:53:00
7:53 PM,46.9,37.0,68,29.86,10.0,SW,19.6,28.8,N/A,,Clear,220,2013-11-03 02:53:00
8:53 PM,46.9,37.0,68,29.87,10.0,SSW,15.0,27.6,N/A,,Clear,210,2013-11-03 03:53:00
9:53 PM,46.9,37.0,68,29.87,10.0,SW,13.8,21.9,N/A,,Clear,220,2013-11-03 04:53:00
10:53 PM,46.9,37.9,71,29.90,10.0,WSW,9.2,20.7,N/A,,Clear,240,2013-11-03 05:53:00
11:22 PM,46.4,37.4,71,29.90,10.0,SW,6.9,-,N/A,,Mostly Cloudy,220,2013-11-03 06:22:00
11:53 PM,46.9,37.9,71,29.91,10.0,SW,9.2,-,N/A,,Overcast,220,2013-11-03 06:53:00